BRAC ONNESHA

Last updated on Tue May 07 2019 03:06:30 GMT+0000 (Coordinated Universal Time)

1 42823U 98067MX 19126.46325411 .10871672 12483-4 53364-3 0 9992 2 42823 51.6136 126.1830 0002073 268.7751 91.3478 16.43067843104944

Satellite not in orbit

BRAC ONNESHA